Weather History for Ogden, UT

Change the Weather History Date:

Saturday, March 8, 2014

  Actual Average Record
Temperature  
Mean Temperature 44 °F -  
Max Temperature 53 °F 51 °F 64 °F (1986)
Min Temperature 34 °F 30 °F 4 °F (1964)
Degree Days  
Heating Degree Days 22    
Moisture  
Dew Point 29 °F    
Average Humidity 58    
Maximum Humidity 76    
Minimum Humidity 37    
Precipitation  
Precipitation 0.00 in - - ()
Sea Level Pressure  
Sea Level Pressure 30.32 in    
Wind  
Wind Speed 4 mph (SSW)    
Max Wind Speed 10 mph    
Max Gust Speed -    
Visibility 10 miles    
Events      
Averages and records for this station are not official NWS values.
T = Trace of Precipitation, MM = Missing Value Source: NWS Daily Summary

Daily Weather History Graph

Daily Weather History Graph

Search for Another Location

Airport:

Trip Planner

Search our weather history database for the weather conditions in past years. The results will help you decide how hot, cold, wet, or windy it might be!

Date:

Astronomy

Mar. 08, 2014 Rise Set
Actual Time 6:51 AM MST 6:27 PM MST
Civil Twilight 6:23 AM MST 6:54 PM MST
Nautical Twilight 5:51 AM MST 7:26 PM MST
Astronomical Twilight 5:19 AM MST 7:58 PM MST
Moon 11:31 AM MST (3/8) 1:31 AM MST (3/8)
Length of Visible Light 12h 30m
Length of Day
11h 35m
First Quarter, 52% of the Moon is Illuminated
Mar 8
First Quarter
Mar 16
Full
Mar 23
Last Quarter
Mar 30
New
Apr 7
First Quarter

Hourly Weather History & Observations

Time (MST) Temp. Windchill Dew Point Humidity Pressure Visibility Wind Dir Wind Speed Gust Speed Precip Events Conditions
12:53 AM 39.0 °F 35.7 °F 28.0 °F 65% 30.25 in 10.0 mi South 4.6 mph - N/A   Mostly Cloudy
1:53 AM 39.0 °F - 30.0 °F 70% 30.26 in 10.0 mi Calm Calm - N/A   Overcast
2:53 AM 37.0 °F - 30.0 °F 76% 30.26 in 10.0 mi Calm Calm - N/A   Overcast
3:53 AM 36.0 °F 33.3 °F 28.0 °F 73% 30.27 in 10.0 mi SSW 3.5 mph - N/A   Clear
4:53 AM 35.1 °F 30.1 °F 27.0 °F 72% 30.29 in 10.0 mi SSE 5.8 mph - N/A   Clear
5:53 AM 35.1 °F 28.6 °F 27.0 °F 72% 30.30 in 10.0 mi South 8.1 mph - N/A   Clear
6:53 AM 34.0 °F 28.8 °F 26.1 °F 73% 30.31 in 10.0 mi SSW 5.8 mph - N/A   Clear
7:53 AM 37.9 °F 35.5 °F 28.0 °F 68% 30.32 in 10.0 mi South 3.5 mph - N/A   Clear
8:53 AM 42.1 °F - 28.0 °F 58% 30.34 in 10.0 mi Calm Calm - N/A   Clear
9:53 AM 45.0 °F - 30.0 °F 56% 30.37 in 10.0 mi Calm Calm - N/A   Clear
10:53 AM 46.9 °F - 28.9 °F 50% 30.38 in 10.0 mi SSW 3.5 mph - N/A   Clear
11:53 AM 50.0 °F - 27.0 °F 41% 30.37 in 10.0 mi Variable 3.5 mph - N/A   Clear
12:53 PM 51.1 °F - 26.1 °F 38% 30.34 in 10.0 mi Calm Calm - N/A   Clear
1:53 PM 53.1 °F - 27.0 °F 37% 30.31 in 10.0 mi SW 5.8 mph - N/A   Clear
2:53 PM 53.1 °F - 33.1 °F 47% 30.30 in 10.0 mi West 10.4 mph - N/A   Clear
3:53 PM 51.1 °F - 30.0 °F 44% 30.30 in 10.0 mi Calm Calm - N/A   Clear
4:53 PM 51.1 °F - 30.0 °F 44% 30.33 in 10.0 mi WNW 5.8 mph - N/A   Clear
5:53 PM 50.0 °F - 30.0 °F 46% 30.33 in 10.0 mi Calm Calm - N/A   Clear
6:53 PM 46.9 °F - 30.0 °F 52% 30.34 in 10.0 mi Calm Calm - N/A   Clear
7:53 PM 45.0 °F 42.6 °F 30.0 °F 56% 30.33 in 10.0 mi SSW 4.6 mph - N/A   Clear
8:53 PM 45.0 °F 42.6 °F 30.9 °F 58% 30.32 in 10.0 mi South 4.6 mph - N/A   Clear
9:53 PM 43.0 °F 39.5 °F 30.0 °F 60% 30.33 in 10.0 mi South 5.8 mph - N/A   Clear
10:53 PM 41.0 °F 35.8 °F 30.0 °F 65% 30.32 in 10.0 mi SSE 8.1 mph - N/A   Clear
11:53 PM 39.9 °F 33.9 °F 28.9 °F 65% 30.32 in 10.0 mi SSE 9.2 mph - N/A   Clear